User: anonymous   Login
Location: Unspecified
(0.0000°N, 0.0000°E)
Time: 06:44:44
(UTC+00:00)
Language:

STARLINK-35245 - Orbit

View from above orbital plane
View from above orbital plane
View from above satellite
View from above satellite

Ground track
Ground track

The orbit is defined by the following mean orbital elements,

1 65599U          26145.43224610 +.00000000 +00000-0 +44621-3 0 00007
2 65599  97.4468 214.0098 0002038 147.4110 212.7243 15.05657873    07
Epoch (UTC): 25 May 2026 10:22:26
Eccentricity: 0.0002038
inclination: 97.4468°
perigee height: 548 km
apogee height: 551 km
right ascension of ascending node: 214.0098°
argument of perigee: 147.4110°
revolutions per day: 15.05657873
mean anomaly at epoch: 212.7243°

The dashed part of the orbit path shows where the satellite is in the earth's shadow,  

DLR